CST,Max TemperatureF,Mean TemperatureF,Min TemperatureF,Max Dew PointF,MeanDew PointF,Min DewpointF,Max Humidity, Mean Humidity, Min Humidity, Max Sea Level PressureIn, Mean Sea Level PressureIn, Min Sea Level PressureIn, Max VisibilityMiles, Mean VisibilityMiles, Min VisibilityMiles, Max Wind SpeedMPH, Mean Wind SpeedMPH, Max Gust SpeedMPH,PrecipitationIn, CloudCover, Events, WindDirDegrees
2014-1-1,59,50,40,47,41,30,83,64,54,30.25,30.11,30.03,10,10,10,9,5,,0.00,7,,221
2014-1-2,52,42,29,46,27,22,91,54,31,30.48,30.36,30.12,10,10,10,25,13,33,0.00,0,,350
2014-1-3,55,40,25,38,25,15,86,57,21,30.47,30.33,30.15,10,10,10,16,8,20,0.00,0,,160
2014-1-4,69,55,41,53,45,37,93,76,47,30.12,30.00,29.82,10,10,10,18,7,25,0.00,4,,216
2014-1-5,56,46,35,53,41,14,100,77,31,30.42,29.97,29.81,10,7,0,25,8,32,0.00,1,Fog,328
2014-1-6,34,29,24,14,8,2,55,41,27,30.75,30.64,30.44,10,10,10,18,10,24,0.00,0,,26
2014-1-7,43,30,17,22,11,1,76,42,18,30.63,30.48,30.33,10,10,10,10,4,,0.00,5,,171
2014-1-8,51,45,39,50,43,25,100,91,53,30.31,30.19,30.11,10,4,1,7,2,,0.00,7,,25
2014-1-9,64,58,51,61,55,50,100,92,75,30.17,30.09,30.01,10,5,0,16,5,22,0.00,7,Fog,112
2014-1-10,71,64,57,63,60,54,94,88,62,29.99,29.90,29.79,10,8,2,13,10,,0.03,6,Rain,203
2014-1-11,74,59,43,53,38,20,94,55,13,30.15,30.05,29.89,10,10,9,10,5,,0.00,0,,339
2014-1-12,68,52,35,59,50,31,94,78,56,30.13,29.99,29.91,10,10,10,14,6,22,0.00,2,,197
2014-1-13,68,54,38,61,47,20,94,71,16,30.17,29.97,29.88,10,9,1,21,7,29,0.00,3,,284
2014-1-14,72,52,31,28,23,16,76,41,11,30.33,30.13,30.03,10,9,6,22,8,30,0.00,0,,268
2014-1-15,63,50,38,23,19,15,46,30,18,30.47,30.33,30.18,10,10,10,17,9,24,0.00,0,,288
2014-1-16,68,52,37,35,30,21,66,45,27,30.18,30.12,30.05,10,10,10,13,6,21,0.00,0,,229
2014-1-17,65,52,37,31,20,13,72,34,14,30.35,30.28,30.20,10,10,10,16,8,21,0.00,0,,25
2014-1-18,68,50,31,41,35,23,80,61,33,30.25,30.19,30.10,10,9,4,15,5,21,0.00,0,,296
2014-1-19,46,44,42,39,38,36,81,78,74,30.26,30.22,30.19,10,7,4,13,7,,0.00,0,,334
2014-1-20,,,,,,,,,,,,,,,,,,,0.00,,,-1
2014-1-21,64,50,37,27,20,15,63,30,15,30.42,30.29,30.18,10,8,2,21,11,30,0.00,0,,29
2014-1-22,68,48,29,40,24,18,76,51,16,30.23,30.14,30.00,10,9,6,14,5,18,0.00,0,,212
2014-1-23,52,40,28,46,34,24,93,80,58,30.64,30.36,30.03,10,10,4,30,10,41,0.01,7,Rain,17
2014-1-24,35,30,24,26,22,18,86,79,64,30.72,30.63,30.38,10,10,10,13,2,,0.01,7,Rain,351
2014-1-25,64,46,29,32,26,23,83,54,25,30.38,30.19,30.04,10,10,10,10,6,,0.00,0,,223
2014-1-26,75,58,41,45,38,29,73,48,31,30.01,29.86,29.71,10,10,10,18,7,22,0.00,0,,213
2014-1-27,54,46,38,43,22,7,77,39,25,30.22,30.05,29.80,10,10,8,24,13,33,0.00,2,,355
2014-1-28,36,32,28,19,13,6,69,47,31,30.48,30.34,30.21,10,10,10,21,15,29,0.00,7,Rain-Snow,5
2014-1-29,47,36,25,20,12,7,62,41,21,30.50,30.40,30.27,10,10,10,10,6,,0.00,0,,154
2014-1-30,65,48,31,49,35,20,92,65,47,30.26,30.07,29.90,10,10,10,18,7,24,0.00,5,,195
2014-1-31,78,64,50,59,53,48,100,78,40,29.97,29.89,29.79,10,10,10,16,10,23,0.00,5,,182